📊 Raw Sensor Data

Showing records 44801 to 44825 of 85,042 total

ID Distance (ft) Battery V Battery A Int Temp (°F) Int Humid (%) Ext Temp (°F) Solar V RSSI SNR Time Stamp
40254 16.3 3.89 -5 59 43 60 0.00 -68 8 05/11/2025 01:45 AM
40253 16.2 3.89 -5 58 43 60 0.00 -68 8 05/11/2025 01:30 AM
40252 16.2 3.95 -5 58 43 61 0.00 -67 8 05/11/2025 01:15 AM
40251 16.2 3.90 -5 58 43 61 0.00 -68 8 05/11/2025 01:00 AM
40250 16.2 3.90 -5 57 44 60 0.00 -68 8 05/11/2025 12:45 AM
40249 16.2 3.90 -5 58 44 60 0.00 -69 7 05/11/2025 12:30 AM
40248 16.2 3.96 -5 58 44 58 0.00 -68 8 05/11/2025 12:15 AM
40247 -- 3.90 -5 58 44 60 0.00 -68 8 05/11/2025 12:00 AM
40246 16.2 3.90 -5 60 44 61 0.00 -68 8 05/10/2025 11:45 PM
40245 16.2 3.90 -5 60 44 63 0.00 -68 8 05/10/2025 11:30 PM
40244 -- 3.96 -5 60 44 62 0.00 -71 8 05/10/2025 11:15 PM
40243 16.3 3.96 -5 61 45 62 0.00 -68 7 05/10/2025 11:00 PM
40242 -- 3.90 -5 62 45 63 0.10 -71 8 05/10/2025 10:45 PM
40241 -- 3.90 -5 62 45 63 0.00 -69 8 05/10/2025 10:30 PM
40240 16.2 3.90 -5 62 46 63 0.00 -70 7 05/10/2025 10:15 PM
40239 16.3 3.90 -5 63 46 64 0.00 -68 8 05/10/2025 10:01 PM
40238 -- 3.90 -5 64 47 65 0.10 -68 8 05/10/2025 09:45 PM
40237 -- 3.90 -5 65 48 66 0.00 -68 8 05/10/2025 09:31 PM
40236 -- 3.91 -5 66 48 67 0.00 -70 8 05/10/2025 09:15 PM
40235 16.3 3.91 -5 67 50 68 0.10 -69 8 05/10/2025 09:00 PM
40234 -- 3.97 -5 68 51 69 0.00 -70 8 05/10/2025 08:45 PM
40233 16.3 3.97 -28 70 53 69 0.00 -68 8 05/10/2025 08:30 PM
40232 16.3 3.91 -5 72 55 70 0.80 -69 8 05/10/2025 08:15 PM
40231 16.3 3.90 -40 76 56 72 4.40 -69 9 05/10/2025 08:00 PM
40230 16.4 3.98 0 82 53 77 4.50 -69 7 05/10/2025 07:45 PM